M I D A S
Marine Information and Data Acquisition System
Tripno 2175 of the Zeeleeuw from 2011-07-06 06:55:43 to 2011-07-06 15:21:16
Back to CruiseResearch ActivitiesStationsMapUnderway DataData graphs

EquipmentUnitsComments
TimeDGPSUTC
LatitudeDGPSDM.mWGS84
LongitudeDGPSDM.mWGS84
SpeedMeteo Stationm/sRelative wind speed
DirectionMeteo StationdegRelative wind direction
TemperatureMeteo Stationdeg CelciusAir temperature
PressureMeteo StationPaAtmospheric pressure
HumidityMeteo Station%Relative humidity
Missing or incorrect values are displayed as -999
Metereological data collected by the RV Zeeleeuw from 2011-07-06 06:51:35 to 2011-07-06 16:11:52
Time Latitude Longitude Speed Direction Temperature Pressure Humidity
2011-07-06 06:52 51°13.64 2°56.003 2.7 31 16.2 100690 46
2011-07-06 06:53 51°13.66 2°55.924 7.2 55 16.2 100680 45
2011-07-06 06:54 51°13.681 2°55.831 6 42 16.2 100680 46
2011-07-06 06:55 51°13.692 2°55.783 0.2 35 16.3 100680 45
2011-07-06 06:56 51°13.701 2°55.793 3 53 16.3 100690 46
2011-07-06 06:57 51°13.75 2°55.757 5 301 16.4 100690 45
2011-07-06 06:58 51°13.805 2°55.669 3.1 310 16.5 100700 44
2011-07-06 06:59 51°13.87 2°55.602 4.6 302 16.5 100690 45
2011-07-06 07:00 51°13.947 2°55.531 6.7 307 16.6 100690 45
2011-07-06 07:01 51°14.04 2°55.461 -999 305 16.6 100690 44
2011-07-06 07:02 51°14.144 2°55.389 4 304 16.7 100690 44
2011-07-06 07:03 51°14.268 2°55.293 4.9 305 16.7 100680 44
2011-07-06 07:04 51°14.401 2°55.17 6.1 301 16.7 100670 44
2011-07-06 07:05 51°14.564 2°55.005 11.1 308 16.8 100660 45
2011-07-06 07:06 51°14.737 2°54.804 4.6 307 16.8 100660 46
2011-07-06 07:07 51°14.914 2°54.587 9.5 306 16.7 100660 46
2011-07-06 07:08 51°15.093 2°54.404 9 302 16.6 100650 46
2011-07-06 07:09 51°15.262 2°54.185 5.7 304 16.5 100650 46
2011-07-06 07:10 51°15.428 2°53.976 10.3 303 16.5 100640 45
2011-07-06 07:11 51°15.6 2°53.775 10.5 303 16.6 100650 47
2011-07-06 07:12 51°15.77 2°53.567 5.2 304 16.5 100640 47
2011-07-06 07:13 51°15.937 2°53.364 9.5 307 16.5 100650 46
2011-07-06 07:14 51°16.113 2°53.16 9.3 305 16.5 100650 47
2011-07-06 07:15 51°16.313 2°53.05 9.1 302 16.4 100650 47
2011-07-06 07:16 51°16.519 2°52.952 8.7 302 16.5 100660 47
2011-07-06 07:17 51°16.723 2°52.851 4.1 305 16.4 100660 47
2011-07-06 07:18 51°16.927 2°52.733 8 310 16.4 100650 46
2011-07-06 07:19 51°17.127 2°52.616 4.6 303 16.5 100650 47
2011-07-06 07:20 51°17.334 2°52.502 7.8 304 16.4 100660 46
2011-07-06 07:21 51°17.539 2°52.403 7.1 301 16.4 100650 47
2011-07-06 07:22 51°17.753 2°52.35 7.8 307 16.4 100660 46
2011-07-06 07:23 51°17.966 2°52.322 10.3 304 16.4 100660 47
2011-07-06 07:24 51°18.176 2°52.314 5.6 307 16.3 100670 45
2011-07-06 07:25 51°18.394 2°52.314 7.3 303 16.3 100650 45
2011-07-06 07:26 51°18.606 2°52.304 6.5 304 16.4 100660 47
2011-07-06 07:27 51°18.825 2°52.294 4 307 16.3 100660 46
2011-07-06 07:28 51°19.041 2°52.314 5 304 16.2 100660 47
2011-07-06 07:29 51°19.254 2°52.361 -999 305 16.2 100650 47
2011-07-06 07:30 51°19.458 2°52.437 -999 55 16.1 100650 47
2011-07-06 07:31 51°19.648 2°52.592 -999 42 16.1 100660 47
2011-07-06 07:32 51°19.787 2°52.842 -999 39 16.2 100650 47
2011-07-06 07:33 51°19.925 2°53.098 -999 26 16.1 100650 46
2011-07-06 07:34 51°20.074 2°53.35 -999 39 16.1 100650 47
2011-07-06 07:35 51°20.235 2°53.567 -999 55 16.1 100660 47
2011-07-06 07:36 51°20.406 2°53.771 -999 55 16.1 100650 47
2011-07-06 07:37 51°20.564 2°53.983 -999 42 16.1 100660 46
2011-07-06 07:38 51°20.728 2°54.189 -999 55 16.1 100660 46
2011-07-06 07:39 51°20.899 2°54.389 -999 55 16.1 100660 47
2011-07-06 07:40 51°21.064 2°54.597 0.1 54 16.2 100660 47
2011-07-06 07:41 51°21.231 2°54.807 -999 55 16.3 100660 46
2011-07-06 07:42 51°21.4 2°55.01 -999 55 16.3 100670 47
2011-07-06 07:43 51°21.564 2°55.221 0.1 55 16.2 100660 46
2011-07-06 07:44 51°21.728 2°55.439 0.2 58 16.3 100670 45
2011-07-06 07:45 51°21.899 2°55.641 -999 55 16.4 100670 46
2011-07-06 07:46 51°22.069 2°55.84 -999 55 16.4 100660 46
2011-07-06 07:47 51°22.243 2°56.042 -999 55 16.5 100670 45
2011-07-06 07:48 51°22.41 2°56.259 -999 55 16.5 100660 45
2011-07-06 07:49 51°22.568 2°56.477 0.3 54 16.5 100660 45
2011-07-06 07:50 51°22.724 2°56.702 0.1 43 16.5 100660 45
2011-07-06 07:51 51°22.877 2°56.926 -999 55 16.5 100660 45
2011-07-06 07:52 51°23.014 2°57.177 -999 27 16.5 100650 46
2011-07-06 07:53 51°23.165 2°57.411 -999 55 16.6 100660 46
2011-07-06 07:54 51°23.319 2°57.63 0.1 55 16.6 100670 46
2011-07-06 07:55 51°23.47 2°57.859 -999 55 16.5 100660 46
2011-07-06 07:56 51°23.63 2°58.077 -999 55 16.5 100650 46
2011-07-06 07:57 51°23.79 2°58.299 -999 55 16.6 100650 46
2011-07-06 07:58 51°23.947 2°58.525 -999 55 16.5 100670 45
2011-07-06 07:59 51°24.103 2°58.746 -999 40 16.6 100660 45
2011-07-06 08:00 51°24.262 2°58.965 -999 55 16.7 100660 46
2011-07-06 08:01 51°24.444 2°59.145 -999 55 16.9 100670 45
2011-07-06 08:02 51°24.634 2°59.309 -999 55 16.8 100670 44
2011-07-06 08:03 51°24.819 2°59.48 -999 55 16.6 100670 44
2011-07-06 08:04 51°24.998 2°59.667 -999 55 16.5 100670 43
2011-07-06 08:05 51°25.175 2°59.859 -999 55 16.5 100670 44
2011-07-06 08:06 51°25.352 3°0.047 -999 55 16.6 100670 44
2011-07-06 08:07 51°25.527 3°0.242 2 55 16.7 100670 45
2011-07-06 08:08 51°25.707 3°0.429 0.2 57 16.8 100670 44
2011-07-06 08:09 51°25.887 3°0.623 -999 58 16.6 100670 44
2011-07-06 08:10 51°26.064 3°0.812 0.1 55 16.7 100680 46
2011-07-06 08:11 51°26.244 3°0.995 0.1 55 16.8 100670 46
2011-07-06 08:12 51°26.426 3°1.183 -999 56 17 100680 45
2011-07-06 08:13 51°26.609 3°1.363 0.1 58 17.4 100670 45
2011-07-06 08:14 51°26.786 3°1.547 0.1 55 17.4 100680 44
2011-07-06 08:15 51°26.966 3°1.73 -999 55 17.1 100660 42
2011-07-06 08:16 51°27.144 3°1.919 -999 55 17.1 100680 45
2011-07-06 08:17 51°27.327 3°2.097 -999 55 17.1 100680 44
2011-07-06 08:18 51°27.508 3°2.288 -999 55 17.2 100670 44
2011-07-06 08:19 51°27.689 3°2.477 -999 55 17.4 100670 43
2011-07-06 08:20 51°27.865 3°2.676 -999 41 17.3 100670 43
2011-07-06 08:21 51°28.041 3°2.876 -999 55 17.3 100680 45
2011-07-06 08:22 51°28.219 3°3.061 -999 55 17.4 100670 45
2011-07-06 08:23 51°28.4 3°3.241 3.3 58 17.2 100660 42
2011-07-06 08:24 51°28.568 3°3.441 -999 55 17.1 100670 44
2011-07-06 08:25 51°28.741 3°3.635 0.1 60 17.3 100670 44
2011-07-06 08:26 51°28.916 3°3.822 -999 55 17.3 100670 43
2011-07-06 08:27 51°29.093 3°4.001 -999 55 17.1 100660 44
2011-07-06 08:28 51°29.27 3°4.182 3.5 55 17 100670 44
2011-07-06 08:29 51°29.446 3°4.359 -999 55 16.6 100660 43
2011-07-06 08:30 51°29.628 3°4.534 -999 55 16.7 100670 45
2011-07-06 08:31 51°29.798 3°4.691 -999 55 16.6 100660 44
2011-07-06 08:32 51°29.88 3°4.755 10.2 50 16.7 100660 45
2011-07-06 08:33 51°29.906 3°4.758 8.5 56 16.5 100660 46
2011-07-06 08:34 51°29.925 3°4.751 7.6 304 16.4 100670 46
2011-07-06 08:35 51°29.941 3°4.743 7.8 306 16.4 100670 47
2011-07-06 08:36 51°29.953 3°4.743 9.7 307 16.3 100660 45
2011-07-06 08:37 51°29.961 3°4.746 7.5 307 16.3 100670 46
2011-07-06 08:38 51°29.968 3°4.75 9.6 307 16.3 100660 46
2011-07-06 08:39 51°29.974 3°4.751 7.5 315 16.3 100660 45
2011-07-06 08:40 51°29.98 3°4.753 8.8 306 16.3 100680 47
2011-07-06 08:41 51°29.987 3°4.753 10.2 311 16.2 100670 47
2011-07-06 08:42 51°29.996 3°4.753 8.2 303 16.2 100680 47
2011-07-06 08:43 51°30.004 3°4.749 7.6 302 16.2 100670 46
2011-07-06 08:44 51°30.013 3°4.744 8.4 309 16.2 100660 47
2011-07-06 08:45 51°30.023 3°4.742 6.2 309 16.2 100670 47
2011-07-06 08:46 51°30.031 3°4.742 7.7 302 16.2 100680 46
2011-07-06 08:47 51°30.04 3°4.741 9.4 304 16.2 100660 46
2011-07-06 08:48 51°30.048 3°4.742 6.6 264 16.1 100670 46
2011-07-06 08:49 51°30.057 3°4.742 6.6 304 16.1 100680 47
2011-07-06 08:50 51°30.066 3°4.741 6.5 263 16.1 100680 46
2011-07-06 08:51 51°30.074 3°4.738 7.3 266 16.2 100670 48
2011-07-06 08:52 51°30.082 3°4.738 8 268 16.1 100670 47
2011-07-06 08:53 51°30.089 3°4.737 8.8 266 16.1 100690 46
2011-07-06 08:54 51°30.096 3°4.736 8.1 303 16.1 100690 47
2011-07-06 08:55 51°30.103 3°4.734 8.8 267 16.2 100680 49
2011-07-06 08:56 51°30.111 3°4.732 7.3 303 16.2 100680 48
2011-07-06 08:57 51°30.12 3°4.728 9.6 272 16.1 100690 46
2011-07-06 08:58 51°30.128 3°4.724 6.2 264 16.1 100690 48
2011-07-06 08:59 51°30.135 3°4.722 9 269 16.3 100680 48
2011-07-06 09:00 51°30.141 3°4.719 6.6 264 16.1 100680 47
2011-07-06 09:01 51°30.146 3°4.72 6.3 265 16 100670 46
2011-07-06 09:02 51°30.151 3°4.721 9 268 16 100680 47
2011-07-06 09:03 51°30.155 3°4.722 10.6 270 15.9 100670 47
2011-07-06 09:04 51°30.159 3°4.72 8.2 269 15.8 100670 47
2011-07-06 09:05 51°30.165 3°4.717 7.8 303 15.9 100670 47
2011-07-06 09:06 51°30.185 3°4.703 10.7 31 15.8 100680 48
2011-07-06 09:07 51°30.225 3°4.686 7.2 51 15.7 100670 47
2011-07-06 09:08 51°30.262 3°4.681 4.4 39 15.8 100670 48
2011-07-06 09:09 51°30.298 3°4.688 7.8 40 15.8 100670 48
2011-07-06 09:10 51°30.33 3°4.704 8 35 16.1 100670 49
2011-07-06 09:11 51°30.355 3°4.734 4.4 37 16 100670 47
2011-07-06 09:12 51°30.368 3°4.772 10.9 26 15.9 100670 47
2011-07-06 09:13 51°30.372 3°4.805 9 25 15.9 100660 47
2011-07-06 09:14 51°30.368 3°4.833 10.3 23 15.8 100670 47
2011-07-06 09:15 51°30.36 3°4.86 10.6 11 15.8 100670 48
2011-07-06 09:16 51°30.351 3°4.884 9.9 17 15.8 100660 47
2011-07-06 09:17 51°30.341 3°4.907 9.3 9 15.8 100670 47
2011-07-06 09:18 51°30.325 3°4.936 11 7 15.8 100660 46
2011-07-06 09:19 51°30.306 3°4.971 10.9 16 15.9 100660 48
2011-07-06 09:20 51°30.289 3°4.999 13.4 7 16 100680 47
2011-07-06 09:21 51°30.271 3°5.019 11.7 9 15.9 100660 47
2011-07-06 09:22 51°30.252 3°5.037 11.5 358 16 100660 47
2011-07-06 09:23 51°30.22 3°5.061 10.1 358 16.1 100650 49
2011-07-06 09:24 51°30.171 3°5.087 10.5 355 16 100660 49
2011-07-06 09:25 51°30.127 3°5.108 12.1 357 15.9 100650 47
2011-07-06 09:26 51°30.083 3°5.119 10.3 352 15.8 100670 47
2011-07-06 09:27 51°30.037 3°5.128 11.4 350 15.9 100640 49
2011-07-06 09:28 51°30.009 3°5.132 10.1 356 15.8 100670 47
2011-07-06 09:29 51°29.997 3°5.132 7.9 1 16 100670 49
2011-07-06 09:30 51°29.993 3°5.131 11.6 5 15.9 100660 48
2011-07-06 09:31 51°29.992 3°5.131 5.7 12 15.8 100670 48
2011-07-06 09:32 51°29.944 3°5.149 14.3 348 15.9 100670 48
2011-07-06 09:33 51°29.842 3°5.092 14.9 320 15.9 100680 48
2011-07-06 09:34 51°29.753 3°4.844 16.8 320 15.9 100670 48
2011-07-06 09:35 51°29.676 3°4.517 7.5 321 15.9 100670 48
2011-07-06 09:36 51°29.593 3°4.191 3.8 318 16 100670 49
2011-07-06 09:37 51°29.507 3°3.869 7.9 323 16 100670 49
2011-07-06 09:38 51°29.418 3°3.547 17.8 324 15.9 100670 48
2011-07-06 09:39 51°29.338 3°3.22 10.9 322 15.9 100670 48
2011-07-06 09:40 51°29.258 3°2.891 16.7 324 16 100680 49
2011-07-06 09:41 51°29.166 3°2.57 8.3 303 15.9 100670 49
2011-07-06 09:42 51°29.076 3°2.246 16.3 320 15.9 100670 49
2011-07-06 09:43 51°28.989 3°1.92 14.9 321 15.8 100670 49
2011-07-06 09:44 51°28.901 3°1.594 7.1 318 15.9 100660 48
2011-07-06 09:45 51°28.823 3°1.265 7 320 15.8 100670 49
2011-07-06 09:46 51°28.735 3°0.94 13.8 323 15.9 100660 49
2011-07-06 09:47 51°28.649 3°0.616 12.4 305 15.9 100660 48
2011-07-06 09:48 51°28.564 3°0.293 13.8 326 15.9 100670 48
2011-07-06 09:49 51°28.455 2°59.987 4.4 303 15.8 100670 49
2011-07-06 09:50 51°28.347 2°59.682 7.4 302 15.8 100660 48
2011-07-06 09:51 51°28.247 2°59.37 3.6 327 15.8 100680 49
2011-07-06 09:52 51°28.146 2°59.058 6.7 328 15.8 100670 48
2011-07-06 09:53 51°28.036 2°58.752 7.1 303 15.7 100670 49
2011-07-06 09:54 51°27.934 2°58.439 4.5 328 15.7 100670 48
2011-07-06 09:55 51°27.832 2°58.125 7.8 329 15.7 100680 48
2011-07-06 09:56 51°27.718 2°57.817 6.9 326 15.6 100680 49
2011-07-06 09:57 51°27.614 2°57.5 13.7 326 15.6 100670 48
2011-07-06 09:58 51°27.503 2°57.188 11.9 303 15.6 100670 49
2011-07-06 09:59 51°27.397 2°56.873 13 324 15.7 100680 50
2011-07-06 10:00 51°27.291 2°56.553 14.2 326 15.8 100680 49
2011-07-06 10:01 51°27.178 2°56.24 12.1 304 15.8 100670 49
2011-07-06 10:02 51°27.072 2°55.92 6.3 305 15.8 100680 50
2011-07-06 10:03 51°26.958 2°55.608 16.5 304 15.9 100670 49
2011-07-06 10:04 51°26.844 2°55.296 11.4 305 15.9 100680 49
2011-07-06 10:05 51°26.745 2°54.969 6.8 305 15.9 100680 49
2011-07-06 10:06 51°26.647 2°54.639 4.6 305 16 100680 50
2011-07-06 10:07 51°26.55 2°54.305 3.3 304 16 100670 49
2011-07-06 10:08 51°26.443 2°53.981 16.4 320 16.1 100670 49
2011-07-06 10:09 51°26.341 2°53.656 16.8 306 16.2 100660 49
2011-07-06 10:10 51°26.247 2°53.328 4 303 16.1 100660 49
2011-07-06 10:11 51°26.126 2°53.033 7.5 330 16.2 100660 48
2011-07-06 10:12 51°25.926 2°52.909 14.1 340 16.3 100680 49
2011-07-06 10:13 51°25.723 2°52.982 6.8 349 16.2 100650 48
2011-07-06 10:14 51°25.541 2°53.139 15.6 353 16.1 100650 49
2011-07-06 10:15 51°25.371 2°53.328 13.9 350 16 100650 48
2011-07-06 10:16 51°25.205 2°53.526 14.1 352 16 100660 49
2011-07-06 10:17 51°25.038 2°53.723 16.1 355 16 100650 47
2011-07-06 10:18 51°24.867 2°53.914 13.1 353 16 100660 49
2011-07-06 10:19 51°24.696 2°54.104 15.7 353 16 100650 48
2011-07-06 10:20 51°24.525 2°54.292 13 352 15.9 100650 48
2011-07-06 10:21 51°24.355 2°54.483 13.1 359 15.9 100660 48
2011-07-06 10:22 51°24.183 2°54.668 13 354 16 100660 48
2011-07-06 10:23 51°24.011 2°54.853 6 352 16 100660 48
2011-07-06 10:24 51°23.844 2°55.047 5.8 356 16 100640 48
2011-07-06 10:25 51°23.681 2°55.248 14.7 356 16 100640 49
2011-07-06 10:26 51°23.517 2°55.449 6.3 2 16 100660 48
2011-07-06 10:27 51°23.351 2°55.65 4.8 356 16 100640 48
2011-07-06 10:28 51°23.166 2°55.802 7.2 352 16 100640 48
2011-07-06 10:29 51°22.968 2°55.911 14.6 347 16.1 100640 47
2011-07-06 10:30 51°22.762 2°55.988 15.6 350 16 100640 45
2011-07-06 10:31 51°22.552 2°56.047 13.3 345 16.2 100650 47
2011-07-06 10:32 51°22.344 2°56.111 7.1 351 16.2 100640 46
2011-07-06 10:33 51°22.166 2°56.218 5.1 19 16.2 100640 46
2011-07-06 10:34 51°22.225 2°56.44 2.7 35 16.2 100690 47
2011-07-06 10:35 51°22.335 2°56.679 2.3 41 16.3 100690 45
2011-07-06 10:36 51°22.44 2°56.93 0.2 30 16.3 100690 46
2011-07-06 10:37 51°22.537 2°57.191 -999 36 16.4 100690 46
2011-07-06 10:38 51°22.619 2°57.461 4.1 35 16.5 100690 47
2011-07-06 10:39 51°22.711 2°57.729 0.1 25 16.6 100700 46
2011-07-06 10:40 51°22.803 2°57.996 -999 29 16.6 100690 46
2011-07-06 10:41 51°22.896 2°58.267 -999 30 16.6 100690 47
2011-07-06 10:42 51°22.988 2°58.536 4.4 26 16.7 100700 47
2011-07-06 10:43 51°23.08 2°58.805 -999 19 16.6 100700 45
2011-07-06 10:44 51°23.175 2°59.073 0.1 23 16.7 100700 46
2011-07-06 10:45 51°23.266 2°59.347 0.1 29 16.7 100690 47
2011-07-06 10:46 51°23.355 2°59.619 4.5 27 16.8 100700 47
2011-07-06 10:47 51°23.439 2°59.901 3.9 26 16.8 100700 44
2011-07-06 10:48 51°23.542 3°0.164 3.3 31 16.9 100700 47
2011-07-06 10:49 51°23.635 3°0.433 4.2 26 16.8 100700 46
2011-07-06 10:50 51°23.731 3°0.701 0.2 25 16.8 100690 47
2011-07-06 10:51 51°23.83 3°0.967 3.6 25 16.8 100690 47
2011-07-06 10:52 51°23.928 3°1.233 4.5 28 16.8 100690 47
2011-07-06 10:53 51°24.025 3°1.498 4.5 19 16.8 100690 46
2011-07-06 10:54 51°24.126 3°1.768 0.1 23 16.8 100690 46
2011-07-06 10:55 51°24.23 3°2.037 -999 20 16.9 100700 46
2011-07-06 10:56 51°24.333 3°2.307 0.1 28 16.9 100690 46
2011-07-06 10:57 51°24.447 3°2.559 -999 40 16.9 100690 47
2011-07-06 10:58 51°24.608 3°2.745 -999 56 16.9 100690 47
2011-07-06 10:59 51°24.744 3°2.973 -999 31 16.9 100700 47
2011-07-06 11:00 51°24.837 3°3.249 -999 25 16.8 100690 47
2011-07-06 11:01 51°24.927 3°3.531 3.8 35 16.7 100690 45
2011-07-06 11:02 51°25.013 3°3.813 2.9 30 16.8 100690 47
2011-07-06 11:03 51°25.102 3°4.093 -999 27 16.9 100690 46
2011-07-06 11:04 51°25.188 3°4.376 2.7 33 17 100700 48
2011-07-06 11:05 51°25.272 3°4.658 5 35 17 100700 46
2011-07-06 11:06 51°25.36 3°4.934 3.2 31 16.9 100700 45
2011-07-06 11:07 51°25.453 3°5.207 2.9 23 16.9 100700 46
2011-07-06 11:08 51°25.532 3°5.489 5.3 23 17 100700 45
2011-07-06 11:09 51°25.615 3°5.764 4.7 30 17 100700 47
2011-07-06 11:10 51°25.7 3°6.044 -999 28 16.9 100710 47
2011-07-06 11:11 51°25.784 3°6.325 -999 33 16.9 100710 45
2011-07-06 11:12 51°25.874 3°6.599 4.2 31 17 100700 46
2011-07-06 11:13 51°25.962 3°6.874 4.2 17 17.1 100710 47
2011-07-06 11:14 51°26.042 3°7.156 5.2 33 17 100700 45
2011-07-06 11:15 51°26.127 3°7.427 1.9 33 16.9 100710 46
2011-07-06 11:16 51°26.195 3°7.71 5.7 16 17 100710 48
2011-07-06 11:17 51°26.264 3°7.995 1.8 21 16.9 100700 48
2011-07-06 11:18 51°26.293 3°8.202 8.4 16 16.9 100700 48
2011-07-06 11:19 51°26.226 3°8.265 8.4 351 16.9 100690 47
2011-07-06 11:20 51°26.159 3°8.241 8.3 303 16.7 100680 48
2011-07-06 11:21 51°26.124 3°8.187 4.5 307 16.7 100690 48
2011-07-06 11:22 51°26.11 3°8.177 8.4 307 16.8 100710 48
2011-07-06 11:23 51°26.096 3°8.177 7.4 302 16.8 100720 48
2011-07-06 11:24 51°26.082 3°8.179 7.5 303 16.7 100710 46
2011-07-06 11:25 51°26.067 3°8.182 10.1 302 16.8 100720 48
2011-07-06 11:26 51°26.053 3°8.185 8 302 16.5 100720 46
2011-07-06 11:27 51°26.04 3°8.185 6.8 302 16.5 100720 45
2011-07-06 11:28 51°26.025 3°8.185 10.1 307 16.6 100710 47
2011-07-06 11:29 51°26.011 3°8.188 7.2 302 16.6 100710 46
2011-07-06 11:30 51°25.996 3°8.194 9.6 302 16.6 100730 43
2011-07-06 11:31 51°25.98 3°8.204 6.3 304 16.7 100730 41
2011-07-06 11:32 51°25.963 3°8.214 8.7 304 16.9 100730 44
2011-07-06 11:33 51°25.946 3°8.224 9.4 305 16.8 100720 42
2011-07-06 11:34 51°25.929 3°8.235 11.7 306 16.7 100730 44
2011-07-06 11:35 51°25.915 3°8.244 8.4 304 16.4 100720 41
2011-07-06 11:36 51°25.901 3°8.254 7.7 307 16.3 100740 42
2011-07-06 11:37 51°25.888 3°8.267 10.1 309 16.3 100720 42
2011-07-06 11:38 51°25.874 3°8.281 8.1 307 16.3 100720 44
2011-07-06 11:39 51°25.86 3°8.295 11.2 304 16.3 100710 42
2011-07-06 11:40 51°25.846 3°8.309 5 303 16.2 100720 42
2011-07-06 11:41 51°25.833 3°8.323 8.3 304 16.2 100740 42
2011-07-06 11:42 51°25.82 3°8.337 12.5 306 16.2 100740 42
2011-07-06 11:43 51°25.805 3°8.352 9.1 304 16 100730 41
2011-07-06 11:44 51°25.79 3°8.365 9.4 299 15.9 100740 45
2011-07-06 11:45 51°25.774 3°8.377 10.1 304 15.5 100740 44
2011-07-06 11:46 51°25.759 3°8.388 9.8 305 15.3 100750 44
2011-07-06 11:47 51°25.744 3°8.398 10 305 15.3 100730 44
2011-07-06 11:48 51°25.731 3°8.408 8.3 304 15.3 100730 47
2011-07-06 11:49 51°25.738 3°8.392 11.1 302 15.5 100730 47
2011-07-06 11:50 51°25.833 3°8.246 11.1 310 15.5 100710 47
2011-07-06 11:51 51°25.974 3°8.048 6.2 304 15.6 100710 45
2011-07-06 11:52 51°26.121 3°7.846 13.5 303 15.6 100720 45
2011-07-06 11:53 51°26.268 3°7.643 10.8 303 15.9 100710 45
2011-07-06 11:54 51°26.382 3°7.541 9.5 56 16 100720 44
2011-07-06 11:55 51°26.421 3°7.586 7.7 59 16.1 100710 42
2011-07-06 11:56 51°26.427 3°7.657 9.5 45 16.2 100720 41
2011-07-06 11:57 51°26.418 3°7.735 10.8 44 16.3 100740 40
2011-07-06 11:58 51°26.394 3°7.809 11 37 16.3 100730 40
2011-07-06 11:59 51°26.362 3°7.875 11.3 27 16.3 100730 40
2011-07-06 12:00 51°26.323 3°7.933 12.5 31 16.5 100710 43
2011-07-06 12:01 51°26.283 3°7.988 10.2 26 16.4 100720 43
2011-07-06 12:02 51°26.24 3°8.037 7 21 16.4 100720 43
2011-07-06 12:03 51°26.197 3°8.084 13.6 23 16.4 100740 41
2011-07-06 12:04 51°26.157 3°8.13 11.1 29 16.5 100750 41
2011-07-06 12:05 51°26.12 3°8.169 12 23 16.5 100730 41
2011-07-06 12:06 51°26.083 3°8.202 8.3 15 16.5 100720 41
2011-07-06 12:07 51°26.044 3°8.242 14.3 25 16.5 100730 40
2011-07-06 12:08 51°26.004 3°8.292 13.3 20 16.5 100730 43
2011-07-06 12:09 51°25.961 3°8.341 12.5 19 16.5 100730 43
2011-07-06 12:10 51°25.915 3°8.39 12.6 23 16.7 100730 45
2011-07-06 12:11 51°25.875 3°8.43 10.9 18 16.7 100720 45
2011-07-06 12:12 51°25.843 3°8.458 12.8 14 16.6 100730 44
2011-07-06 12:13 51°25.815 3°8.54 7.8 54 16.5 100740 43
2011-07-06 12:14 51°25.86 3°8.573 12.2 306 16.6 100730 44
2011-07-06 12:15 51°25.869 3°8.483 9.4 306 16.7 100710 43
2011-07-06 12:16 51°25.798 3°8.377 6.4 336 16.7 100720 44
2011-07-06 12:17 51°25.663 3°8.217 5.4 331 16.7 100720 45
2011-07-06 12:18 51°25.51 3°8.008 7.6 331 16.7 100720 44
2011-07-06 12:19 51°25.339 3°7.797 20 337 16.7 100730 45
2011-07-06 12:20 51°25.152 3°7.62 7.5 344 16.7 100710 44
2011-07-06 12:21 51°24.939 3°7.593 11.8 354 16.7 100710 45
2011-07-06 12:22 51°24.732 3°7.71 7.2 357 16.7 100700 44
2011-07-06 12:23 51°24.558 3°7.903 9.9 8 16.7 100720 43
2011-07-06 12:24 51°24.447 3°8.191 10.8 10 16.7 100740 43
2011-07-06 12:25 51°24.351 3°8.494 11.7 13 16.8 100730 43
2011-07-06 12:26 51°24.25 3°8.793 10.6 9 16.8 100740 43
2011-07-06 12:27 51°24.123 3°9.056 11.5 9 16.8 100730 42
2011-07-06 12:28 51°23.988 3°9.302 9.2 6 16.8 100720 42
2011-07-06 12:29 51°23.857 3°9.556 12.3 10 16.9 100730 43
2011-07-06 12:30 51°23.728 3°9.809 8.4 9 16.9 100740 43
2011-07-06 12:31 51°23.601 3°10.068 11.2 15 17 100740 41
2011-07-06 12:32 51°23.473 3°10.326 11.6 12 17 100730 42
2011-07-06 12:33 51°23.341 3°10.574 13.7 7 17 100730 43
2011-07-06 12:34 51°23.197 3°10.806 9.8 3 17 100730 42
2011-07-06 12:35 51°23.008 3°10.943 17.6 358 17 100710 41
2011-07-06 12:36 51°22.81 3°11.036 11.2 358 17 100710 40
2011-07-06 12:37 51°22.613 3°11.133 15.8 1 17.1 100720 42
2011-07-06 12:38 51°22.543 3°11.267 8.1 53 17 100730 41
2011-07-06 12:39 51°22.549 3°11.44 11 30 17 100750 39
2011-07-06 12:40 51°22.529 3°11.67 7.7 58 17.1 100740 42
2011-07-06 12:41 51°22.562 3°11.739 11.4 55 17.1 100750 41
2011-07-06 12:42 51°22.573 3°11.742 7.7 306 17.2 100750 41
2011-07-06 12:43 51°22.579 3°11.741 9.6 307 17.3 100760 43
2011-07-06 12:44 51°22.583 3°11.741 8.7 306 17.4 100760 43
2011-07-06 12:45 51°22.586 3°11.744 5.1 301 17.5 100750 43
2011-07-06 12:46 51°22.588 3°11.75 8.4 305 17.4 100750 42
2011-07-06 12:47 51°22.588 3°11.76 8.5 262 17.4 100760 41
2011-07-06 12:48 51°22.588 3°11.768 6.8 266 17.4 100760 43
2011-07-06 12:49 51°22.588 3°11.775 5.5 265 17.4 100770 42
2011-07-06 12:50 51°22.587 3°11.784 6.5 262 17.3 100760 43
2011-07-06 12:51 51°22.586 3°11.793 7.6 264 17.2 100770 42
2011-07-06 12:52 51°22.585 3°11.803 7.5 264 17.3 100770 42
2011-07-06 12:53 51°22.584 3°11.813 6.7 262 17.3 100770 41
2011-07-06 12:54 51°22.584 3°11.823 9.1 262 17.3 100760 41
2011-07-06 12:55 51°22.585 3°11.833 6 260 17.3 100760 40
2011-07-06 12:56 51°22.585 3°11.844 7.7 266 17.3 100750 40
2011-07-06 12:57 51°22.586 3°11.855 6.2 262 17.3 100770 41
2011-07-06 12:58 51°22.587 3°11.867 7 264 17.4 100780 42
2011-07-06 12:59 51°22.587 3°11.877 12.4 259 17.4 100770 42
2011-07-06 13:00 51°22.588 3°11.888 13 260 17.5 100780 42
2011-07-06 13:01 51°22.588 3°11.901 9.5 261 17.4 100770 41
2011-07-06 13:02 51°22.588 3°11.914 9.1 260 17.4 100770 41
2011-07-06 13:03 51°22.587 3°11.93 7.1 264 17.4 100770 39
2011-07-06 13:04 51°22.587 3°11.945 9.5 266 17.3 100770 39
2011-07-06 13:05 51°22.587 3°11.958 5.3 263 17.3 100770 39
2011-07-06 13:06 51°22.586 3°11.971 9.5 261 17.4 100760 41
2011-07-06 13:07 51°22.585 3°11.986 5.5 261 17.5 100770 41
2011-07-06 13:08 51°22.584 3°12.002 8.4 264 17.5 100760 40
2011-07-06 13:09 51°22.583 3°12.019 6.4 267 17.5 100770 41
2011-07-06 13:10 51°22.583 3°12.036 7.1 263 17.5 100770 41
2011-07-06 13:11 51°22.584 3°12.051 8 263 17.3 100780 38
2011-07-06 13:12 51°22.585 3°12.068 10.6 262 17.4 100780 40
2011-07-06 13:13 51°22.617 3°12.096 4.4 34 17.3 100770 39
2011-07-06 13:14 51°22.649 3°12.148 9.4 38 17.2 100770 39
2011-07-06 13:15 51°22.677 3°12.206 4.9 34 17.3 100760 40
2011-07-06 13:16 51°22.691 3°12.271 8.5 37 17.2 100770 40
2011-07-06 13:17 51°22.698 3°12.34 7.6 35 17.2 100760 38
2011-07-06 13:18 51°22.702 3°12.41 4.1 40 17.2 100760 40
2011-07-06 13:19 51°22.704 3°12.48 11.9 38 17.1 100760 37
2011-07-06 13:20 51°22.7 3°12.552 7.7 33 17.1 100750 39
2011-07-06 13:21 51°22.691 3°12.618 10.1 39 17.1 100750 41
2011-07-06 13:22 51°22.677 3°12.677 7.8 38 17.1 100740 40
2011-07-06 13:23 51°22.662 3°12.73 10 32 17.2 100740 41
2011-07-06 13:24 51°22.647 3°12.779 9.9 33 17.3 100750 41
2011-07-06 13:25 51°22.631 3°12.827 9.3 30 17.3 100750 42
2011-07-06 13:26 51°22.612 3°12.872 7.5 24 17.2 100750 40
2011-07-06 13:27 51°22.591 3°12.913 8.8 26 17.3 100750 40
2011-07-06 13:28 51°22.57 3°12.951 11.8 25 17.2 100740 41
2011-07-06 13:29 51°22.548 3°12.986 13.9 23 17.3 100750 43
2011-07-06 13:30 51°22.526 3°13.018 11.6 19 17.2 100750 43
2011-07-06 13:31 51°22.503 3°13.048 8.5 22 17.1 100760 43
2011-07-06 13:32 51°22.479 3°13.077 12.3 16 17.1 100750 44
2011-07-06 13:33 51°22.457 3°13.107 10.3 15 17 100760 42
2011-07-06 13:34 51°22.437 3°13.137 9.6 9 17.1 100760 44
2011-07-06 13:35 51°22.394 3°13.127 11.4 343 17 100750 42
2011-07-06 13:36 51°22.36 3°12.926 16.8 328 17 100760 43
2011-07-06 13:37 51°22.335 3°12.621 13.3 328 17.1 100750 43
2011-07-06 13:38 51°22.312 3°12.312 17.8 327 17.1 100750 42
2011-07-06 13:39 51°22.268 3°12.007 16.5 328 17.1 100740 42
2011-07-06 13:40 51°22.221 3°11.705 8.2 332 17 100750 42
2011-07-06 13:41 51°22.151 3°11.419 8.1 333 17 100760 43
2011-07-06 13:42 51°22.076 3°11.134 10.6 332 17 100750 43
2011-07-06 13:43 51°22.007 3°10.845 8.1 332 17 100770 41
2011-07-06 13:44 51°21.947 3°10.55 14.8 334 17.1 100760 43
2011-07-06 13:45 51°21.879 3°10.261 8 334 17 100770 44
2011-07-06 13:46 51°21.81 3°9.971 15.1 334 16.9 100760 43
2011-07-06 13:47 51°21.723 3°9.693 8.9 334 16.8 100760 43
2011-07-06 13:48 51°21.649 3°9.404 16.1 332 16.9 100760 44
2011-07-06 13:49 51°21.569 3°9.12 17 335 16.8 100750 43
2011-07-06 13:50 51°21.487 3°8.841 7.5 334 16.9 100770 44
2011-07-06 13:51 51°21.413 3°8.553 18 332 16.8 100760 42
2011-07-06 13:52 51°21.325 3°8.276 17.6 334 16.9 100770 44
2011-07-06 13:53 51°21.238 3°7.999 17.6 335 16.9 100770 43
2011-07-06 13:54 51°21.142 3°7.731 17.8 335 17 100750 43
2011-07-06 13:55 51°21.035 3°7.477 4.8 335 17.1 100760 45
2011-07-06 13:56 51°20.943 3°7.206 7.7 332 17.1 100760 43
2011-07-06 13:57 51°20.847 3°6.944 17.2 335 17.1 100760 43
2011-07-06 13:58 51°20.743 3°6.69 8.8 335 17.1 100760 43
2011-07-06 13:59 51°20.65 3°6.428 11.6 334 17.1 100760 40
2011-07-06 14:00 51°20.558 3°6.164 8.3 335 17.2 100750 41
2011-07-06 14:01 51°20.457 3°5.909 8.3 336 17.3 100750 42
2011-07-06 14:02 51°20.357 3°5.655 7.6 338 17.2 100770 39
2011-07-06 14:03 51°20.256 3°5.401 9 334 17.4 100750 41
2011-07-06 14:04 51°20.174 3°5.135 9.2 334 17.3 100730 39
2011-07-06 14:05 51°20.083 3°4.877 16.9 334 17.5 100760 40
2011-07-06 14:06 51°20 3°4.614 4.7 333 17.4 100760 39
2011-07-06 14:07 51°19.916 3°4.353 17.4 335 17.4 100760 38
2011-07-06 14:08 51°19.827 3°4.097 8.6 335 17.4 100760 41
2011-07-06 14:09 51°19.741 3°3.84 19.8 336 17.4 100760 42
2011-07-06 14:10 51°19.661 3°3.581 17 335 17.4 100770 42
2011-07-06 14:11 51°19.572 3°3.326 4.4 335 17.3 100770 41
2011-07-06 14:12 51°19.48 3°3.079 8 337 17.3 100760 42
2011-07-06 14:13 51°19.399 3°2.823 7.9 334 17.3 100770 41
2011-07-06 14:14 51°19.312 3°2.574 5.6 335 17.2 100770 41
2011-07-06 14:15 51°19.228 3°2.322 8.7 335 17.1 100760 41
2011-07-06 14:16 51°19.15 3°2.063 18.3 335 17.1 100760 43
2011-07-06 14:17 51°19.06 3°1.82 5.8 335 17.1 100760 42
2011-07-06 14:18 51°18.973 3°1.577 7.9 334 17 100760 40
2011-07-06 14:19 51°18.895 3°1.325 17.4 337 17 100760 43
2011-07-06 14:20 51°18.827 3°1.067 4.8 334 17.1 100760 41
2011-07-06 14:21 51°18.759 3°0.812 3.8 332 17.1 100760 40
2011-07-06 14:22 51°18.685 3°0.556 7.8 335 17.1 100780 42
2011-07-06 14:23 51°18.614 3°0.3 7.9 335 17.1 100760 40
2011-07-06 14:24 51°18.548 3°0.044 8.8 332 17.1 100760 41
2011-07-06 14:25 51°18.472 2°59.79 7.4 337 17.1 100780 41
2011-07-06 14:26 51°18.433 2°59.64 11.2 326 17 100780 40
2011-07-06 14:27 51°18.446 2°59.621 11 322 17.1 100780 41
2011-07-06 14:28 51°18.463 2°59.671 4.8 304 17.2 100780 42
2011-07-06 14:29 51°18.475 2°59.735 9.1 302 17.2 100750 41
2011-07-06 14:30 51°18.484 2°59.791 9.4 305 17.4 100770 42
2011-07-06 14:31 51°18.495 2°59.847 7.7 266 17.3 100780 39
2011-07-06 14:32 51°18.508 2°59.903 7.2 303 17.3 100770 42
2011-07-06 14:33 51°18.523 2°59.957 6.4 303 17.1 100780 40
2011-07-06 14:34 51°18.538 3°0.013 10.6 305 17.2 100780 41
2011-07-06 14:35 51°18.554 3°0.069 5.6 304 17.3 100770 42
2011-07-06 14:36 51°18.57 3°0.127 9.5 303 17.2 100770 40
2011-07-06 14:37 51°18.584 3°0.186 12.2 304 17.3 100780 42
2011-07-06 14:38 51°18.597 3°0.249 5.1 261 17.4 100770 43
2011-07-06 14:39 51°18.611 3°0.312 13.1 304 17.3 100770 41
2011-07-06 14:40 51°18.627 3°0.372 9.3 262 17.2 100780 41
2011-07-06 14:41 51°18.644 3°0.431 11.9 305 17.2 100780 40
2011-07-06 14:42 51°18.661 3°0.492 9.9 259 17.2 100770 41
2011-07-06 14:43 51°18.678 3°0.554 12.4 302 17.3 100770 43
2011-07-06 14:44 51°18.695 3°0.616 12.3 258 17.2 100770 42
2011-07-06 14:45 51°18.711 3°0.678 10.8 304 17.2 100780 42
2011-07-06 14:46 51°18.727 3°0.741 5.2 308 17.2 100780 44
2011-07-06 14:47 51°18.746 3°0.804 5.6 302 17.2 100790 42
2011-07-06 14:48 51°18.765 3°0.865 12 309 17.2 100780 43
2011-07-06 14:49 51°18.783 3°0.927 8.8 300 17.3 100780 43
2011-07-06 14:50 51°18.802 3°0.991 11.1 305 17.3 100780 43
2011-07-06 14:51 51°18.822 3°1.053 11.7 304 17.4 100790 44
2011-07-06 14:52 51°18.842 3°1.119 5.2 304 17.3 100780 41
2011-07-06 14:53 51°18.863 3°1.185 11.8 303 17.3 100780 42
2011-07-06 14:54 51°18.885 3°1.251 10.3 304 17.2 100780 41
2011-07-06 14:55 51°18.906 3°1.318 5 300 17.2 100770 40
2011-07-06 14:56 51°18.926 3°1.385 9.1 303 17.2 100790 42
2011-07-06 14:57 51°18.946 3°1.455 11.4 303 17.3 100770 42
2011-07-06 14:58 51°18.965 3°1.525 10.5 303 17.2 100790 42
2011-07-06 14:59 51°18.986 3°1.595 8.8 301 17.2 100790 41
2011-07-06 15:00 51°19.008 3°1.664 12.5 306 17.3 100790 43
2011-07-06 15:01 51°19.051 3°1.735 10 298 17.3 100790 43
2011-07-06 15:02 51°19.098 3°1.84 9.3 55 17.1 100790 41
2011-07-06 15:03 51°19.117 3°1.964 10.6 34 17 100800 40
2011-07-06 15:04 51°19.108 3°2.073 8.5 26 17.1 100810 42
2011-07-06 15:05 51°19.089 3°2.173 11.8 21 17.1 100810 42
2011-07-06 15:06 51°19.076 3°2.258 15 14 17 100810 41
2011-07-06 15:07 51°19.064 3°2.333 11.3 7 17 100810 41
2011-07-06 15:08 51°19.053 3°2.403 9.3 5 16.9 100800 40
2011-07-06 15:09 51°19.043 3°2.47 9.7 8 17 100780 42
2011-07-06 15:10 51°19.034 3°2.536 10.9 13 17 100790 41
2011-07-06 15:11 51°19.025 3°2.6 7.3 4 17.1 100800 42
2011-07-06 15:12 51°19.017 3°2.664 12.1 5 17 100790 42
2011-07-06 15:13 51°19.01 3°2.728 8.6 1 17 100790 42
2011-07-06 15:14 51°19.005 3°2.79 14.3 360 17 100790 41
2011-07-06 15:15 51°19.004 3°2.851 10.8 2 17.1 100790 42
2011-07-06 15:16 51°18.996 3°2.909 13.3 1 17.1 100790 42
2011-07-06 15:17 51°18.993 3°2.964 10.1 -999 17 100760 41
2011-07-06 15:18 51°18.984 3°3.012 11.9 356 17 100770 41
2011-07-06 15:19 51°18.883 3°2.952 16.7 346 17 100750 40
2011-07-06 15:20 51°18.777 3°2.782 8.3 339 17 100760 41
2011-07-06 15:21 51°18.693 3°2.582 4.6 338 17.2 100760 41
2011-07-06 15:22 51°18.61 3°2.381 8.4 338 17.2 100760 41
2011-07-06 15:23 51°18.528 3°2.17 16.9 336 17.1 100760 40
2011-07-06 15:24 51°18.45 3°1.962 7.2 336 17.2 100770 41
2011-07-06 15:25 51°18.37 3°1.755 5.5 337 17.3 100770 43
2011-07-06 15:26 51°18.298 3°1.532 16.4 336 17.2 100760 40
2011-07-06 15:27 51°18.225 3°1.314 16.3 340 17.3 100780 40
2011-07-06 15:28 51°18.146 3°1.087 18.6 339 17.3 100770 41
2011-07-06 15:29 51°18.064 3°0.859 7.7 339 17.3 100790 42
2011-07-06 15:30 51°17.978 3°0.645 4.8 337 17.2 100780 42
2011-07-06 15:31 51°17.897 3°0.428 3.9 338 17.2 100760 40
2011-07-06 15:32 51°17.819 3°0.201 15.5 337 17.2 100770 41
2011-07-06 15:33 51°17.739 2°59.97 16.5 339 17.2 100780 41
2011-07-06 15:34 51°17.658 2°59.739 7.1 338 17.2 100790 42
2011-07-06 15:35 51°17.571 2°59.518 16.5 341 17.2 100770 39
2011-07-06 15:36 51°17.484 2°59.292 19.1 338 17.1 100780 41
2011-07-06 15:37 51°17.408 2°59.055 7.2 336 17.2 100780 43
2011-07-06 15:38 51°17.322 2°58.826 7 341 17.1 100780 43
2011-07-06 15:39 51°17.234 2°58.593 8.4 337 17.1 100780 43
2011-07-06 15:40 51°17.149 2°58.359 5.4 337 17.1 100780 43
2011-07-06 15:41 51°17.07 2°58.119 14.9 338 17.1 100790 42
2011-07-06 15:42 51°16.982 2°57.888 7.3 336 17.1 100810 42
2011-07-06 15:43 51°16.887 2°57.666 14.5 337 17.1 100800 42
2011-07-06 15:44 51°16.795 2°57.45 17.1 340 17 100810 41
2011-07-06 15:45 51°16.703 2°57.228 14 338 17 100800 43
2011-07-06 15:46 51°16.607 2°57.008 4.4 340 17 100780 42
2011-07-06 15:47 51°16.506 2°56.802 4.4 340 17 100790 41
2011-07-06 15:48 51°16.407 2°56.586 8.8 339 17 100780 41
2011-07-06 15:49 51°16.307 2°56.369 7.4 342 17 100790 42
2011-07-06 15:50 51°16.198 2°56.162 15.1 342 16.9 100780 42
2011-07-06 15:51 51°16.086 2°55.953 3.3 342 17 100780 41
2011-07-06 15:52 51°15.968 2°55.755 7 343 17 100780 42
2011-07-06 15:53 51°15.855 2°55.55 15.6 341 17.1 100770 42
2011-07-06 15:54 51°15.736 2°55.358 3.3 343 17.1 100780 41
2011-07-06 15:55 51°15.608 2°55.186 7.3 350 17.1 100780 41
2011-07-06 15:56 51°15.45 2°55.072 13.8 351 16.9 100770 41
2011-07-06 15:57 51°15.289 2°54.962 7.4 352 16.9 100740 43
2011-07-06 15:58 51°15.121 2°54.885 4.5 351 17 100740 42
2011-07-06 15:59 51°14.944 2°54.857 15.2 357 17 100740 41
2011-07-06 16:00 51°14.762 2°54.889 11.2 1 16.9 100750 41
2011-07-06 16:01 51°14.588 2°55.033 12.8 8 17 100770 42
2011-07-06 16:02 51°14.405 2°55.156 8.9 13 17 100770 43
2011-07-06 16:03 51°14.228 2°55.328 10.4 12 17 100770 41
2011-07-06 16:04 51°14.066 2°55.459 4.5 354 17.1 100790 42
2011-07-06 16:05 51°13.949 2°55.544 6.4 15 17.2 100790 41
2011-07-06 16:06 51°13.846 2°55.618 2.2 40 17.4 100800 40
2011-07-06 16:07 51°13.769 2°55.697 5.3 23 17.6 100800 38
2011-07-06 16:08 51°13.725 2°55.778 6.9 30 17.7 100790 38
2011-07-06 16:09 51°13.69 2°55.851 4.5 35 17.6 100790 38
2011-07-06 16:10 51°13.665 2°55.91 6.7 45 17.6 100800 39
2011-07-06 16:11 51°13.646 2°55.968 7.8 36 17.6 100790 39